Torna al catalogo

STARLINK-33733

AttivoComunicazioniVLEO
NORAD 63435·PAYLOAD·🇺🇸 United States

Lanciato Apr 4, 2025 da Vandenberg Space Force Base

Loading…

Prossimi Passaggi (prossime 24 ore)

TLE

AggiornatoSource: CelesTrak SupGP

Epoca: Sep 15, 2026, 02:25 UTC

1 63435C 25069C   26258.10118056  .00069703  00000+0  20594-2 0  2582
2 63435  53.1589 334.8624 0001191  84.0143 305.7814 15.34356302    17

Traccia STARLINK-33733 in tempo reale con AllMySat

Download on the App Store